Farnsworth, TX

9:18 AM CDT on August 25, 2016 (GMT -0500)
Perryton Ochiltree County

Weather History for KPYX - May, 2013

Change the Weather History Date:

Monday, May 20, 2013

  Actual Average Record
Temperature  
Mean Temperature 65 °F -  
Max Temperature 82 °F 79 °F 100 °F (2006)
Min Temperature 49 °F 51 °F 34 °F (1971)
Growing Degree Days 15 (Base 50)    
Moisture  
Dew Point 42 °F    
Average Humidity 47    
Maximum Humidity 68    
Minimum Humidity 19    
Precipitation  
Precipitation 0.00 in - - ()
Sea Level Pressure  
Sea Level Pressure 29.81 in    
Wind  
Wind Speed 8 mph (North)    
Max Wind Speed 23 mph    
Max Gust Speed 34 mph    
Visibility 10 miles    
Events      
Averages and records for this station are not official NWS values.
T = Trace of Precipitation, MM = Missing Value Source: NWS Daily Summary

Daily Weather History Graph

Daily Weather History Graph

Search for Another Location

Airport or City:

Trip Planner

Search our weather history database for the weather conditions in past years. The results will help you decide how hot, cold, wet, or windy it might be!

Date:

Astronomy

May. 20, 2013 Rise Set
Actual Time 6:32 AM CDT 8:47 PM CDT
Civil Twilight 6:03 AM CDT 9:16 PM CDT
Nautical Twilight 5:27 AM CDT 9:52 PM CDT
Astronomical Twilight 4:48 AM CDT 10:31 PM CDT
Moon 4:04 PM CDT (5/20) 3:19 AM CDT (5/20)
Length of Visible Light 15h 13m
Length of Day
14h 14m
Waxing Gibbous, 75% of the Moon is Illuminated
May 20
Waxing Gibbous
May 24
Full
May 31
Last Quarter
Jun 8
New
Jun 16
First Quarter

Hourly Weather History & Observations

Time (CDT) Temp. Dew Point Humidity Pressure Visibility Wind Dir Wind Speed Gust Speed Precip Events Conditions
12:15 AM 59.9 °F 41.2 °F 50% 29.75 in 10.0 mi NNE 5.8 mph - N/A   Clear
12:35 AM 59.2 °F 43.2 °F 55% 29.75 in 10.0 mi NE 5.8 mph - N/A   Clear
12:55 AM 58.3 °F 43.0 °F 57% 29.75 in 10.0 mi NE 6.9 mph - N/A   Clear
1:15 AM 57.2 °F 43.2 °F 59% 29.76 in 10.0 mi Calm Calm - N/A   Clear
1:35 AM 53.2 °F 40.3 °F 61% 29.77 in 10.0 mi Calm Calm - N/A   Clear
1:55 AM 51.6 °F 37.2 °F 58% 29.78 in 10.0 mi Calm Calm - N/A   Clear
2:15 AM 49.3 °F 36.3 °F 61% 29.77 in 10.0 mi Calm Calm - N/A   Clear
2:35 AM 51.4 °F 38.8 °F 62% 29.77 in 10.0 mi Calm Calm - N/A   Clear
3:15 AM 51.3 °F 38.3 °F 61% 29.78 in 10.0 mi Calm Calm - N/A   Clear
3:35 AM 50.9 °F 38.5 °F 62% 29.78 in 10.0 mi Calm Calm - N/A   Clear
3:55 AM 51.6 °F 38.5 °F 61% 29.76 in 10.0 mi North 4.6 mph - N/A   Clear
4:35 AM 54.7 °F 43.2 °F 65% 29.76 in 10.0 mi NNW 11.5 mph - N/A   Clear
4:55 AM 55.9 °F 45.0 °F 67% 29.75 in 10.0 mi North 4.6 mph - N/A   Clear
5:15 AM 55.6 °F 45.1 °F 68% 29.77 in 10.0 mi NW 10.4 mph - N/A   Clear
5:35 AM 56.1 °F 45.5 °F 68% 29.78 in 10.0 mi NW 11.5 mph - N/A   Clear
5:55 AM 58.3 °F 45.5 °F 62% 29.74 in 10.0 mi North 16.1 mph 27.6 mph N/A   Scattered Clouds
6:15 AM 57.4 °F 45.1 °F 64% 29.76 in 10.0 mi NW 11.5 mph 20.7 mph N/A   Scattered Clouds
6:35 AM 57.6 °F 45.0 °F 63% 29.78 in 10.0 mi North 3.5 mph - N/A   Scattered Clouds
6:55 AM 56.8 °F 44.8 °F 64% 29.80 in 10.0 mi SSW 6.9 mph - N/A   Scattered Clouds
7:15 AM 57.4 °F 45.0 °F 63% 29.80 in 10.0 mi Calm Calm - N/A   Scattered Clouds
7:35 AM 58.1 °F 45.0 °F 62% 29.81 in 10.0 mi SSE 6.9 mph - N/A   Scattered Clouds
7:55 AM 58.6 °F 46.4 °F 64% 29.80 in 10.0 mi ESE 8.1 mph - N/A   Scattered Clouds
8:15 AM 65.5 °F 43.9 °F 46% 29.79 in 10.0 mi East 4.6 mph 9.2 mph N/A   Scattered Clouds
8:35 AM 62.8 °F 45.5 °F 53% 29.83 in 10.0 mi WNW 11.5 mph 17.3 mph N/A   Scattered Clouds
8:55 AM 61.0 °F 45.9 °F 58% 29.84 in 10.0 mi WNW 16.1 mph 20.7 mph N/A   Clear
9:15 AM 60.8 °F 46.4 °F 59% 29.83 in 10.0 mi North 9.2 mph - N/A   Clear
9:35 AM 61.5 °F 46.0 °F 57% 29.84 in 10.0 mi North 12.7 mph - N/A   Clear
9:55 AM 60.8 °F 45.5 °F 57% 29.86 in 10.0 mi North 17.3 mph 20.7 mph N/A   Clear
10:35 AM 63.1 °F 45.1 °F 52% 29.83 in 10.0 mi NNE 16.1 mph - N/A   Clear
10:55 AM 65.7 °F 45.3 °F 48% 29.84 in 10.0 mi NE 16.1 mph - N/A   Clear
11:15 AM 67.3 °F 45.1 °F 45% 29.84 in 10.0 mi NNE 15.0 mph - N/A   Clear
11:35 AM 68.2 °F 45.5 °F 44% 29.85 in 10.0 mi North 15.0 mph 20.7 mph N/A   Clear
11:55 AM 68.7 °F 44.2 °F 41% 29.85 in 10.0 mi NNE 11.5 mph - N/A   Clear
12:15 PM 67.3 °F 44.2 °F 43% 29.85 in 10.0 mi NNE 11.5 mph 16.1 mph N/A   Clear
12:35 PM 70.5 °F 44.8 °F 40% 29.84 in 10.0 mi NE 10.4 mph - N/A   Clear
12:55 PM 71.8 °F 42.6 °F 35% 29.83 in 10.0 mi NNE 6.9 mph - N/A   Clear
1:15 PM 73.0 °F 42.4 °F 33% 29.83 in 10.0 mi NNE 6.9 mph - N/A   Clear
1:55 PM 74.8 °F 41.9 °F 31% 29.82 in 10.0 mi East 6.9 mph - N/A   Clear
2:15 PM 75.7 °F 41.2 °F 29% 29.82 in 10.0 mi Calm Calm - N/A   Clear
2:35 PM 77.4 °F 41.0 °F 27% 29.81 in 10.0 mi SW 3.5 mph - N/A   Clear
2:55 PM 79.7 °F 39.2 °F 23% 29.81 in 10.0 mi North 8.1 mph - N/A   Clear
3:15 PM 81.0 °F 37.2 °F 21% 29.80 in 10.0 mi West 5.8 mph - N/A   Clear
3:35 PM 80.4 °F 37.6 °F 22% 29.80 in 10.0 mi WSW 6.9 mph - N/A   Clear
3:55 PM 81.5 °F 35.6 °F 19% 29.79 in 10.0 mi WSW 10.4 mph - N/A   Clear
4:15 PM 81.5 °F 36.5 °F 20% 29.78 in 10.0 mi NNW 8.1 mph 17.3 mph N/A   Clear
4:35 PM 80.4 °F 36.3 °F 20% 29.78 in 10.0 mi NW 6.9 mph - N/A   Clear
4:55 PM 81.7 °F 37.0 °F 20% 29.77 in 10.0 mi NNW 11.5 mph - N/A   Clear
5:15 PM 81.1 °F 34.9 °F 19% 29.76 in 10.0 mi NW 11.5 mph 18.4 mph N/A   Clear
5:35 PM 79.3 °F 34.5 °F 20% 29.78 in 10.0 mi WNW 12.7 mph 16.1 mph N/A   Clear
5:55 PM 73.8 °F 41.2 °F 31% 29.81 in 5.0 mi West 19.6 mph 34.5 mph N/A   Mostly Cloudy
6:15 PM 73.0 °F 38.5 °F 29% 29.80 in 10.0 mi WNW 15.0 mph 26.5 mph N/A   Scattered Clouds
6:35 PM 76.6 °F 37.6 °F 24% 29.79 in 10.0 mi North 18.4 mph 21.9 mph N/A   Clear
6:55 PM 76.3 °F 39.4 °F 26% 29.80 in 10.0 mi NNW 23.0 mph 31.1 mph N/A   Clear
7:15 PM 72.5 °F 42.1 °F 33% 29.80 in 10.0 mi North 20.7 mph 31.1 mph N/A   Clear
7:35 PM 72.3 °F 41.4 °F 33% 29.79 in 10.0 mi North 20.7 mph 25.3 mph N/A   Clear
7:55 PM 71.6 °F 39.4 °F 31% 29.80 in 10.0 mi North 18.4 mph 25.3 mph N/A   Clear
8:15 PM 70.7 °F 40.5 °F 33% 29.80 in 10.0 mi North 18.4 mph 25.3 mph N/A   Clear
8:35 PM 68.4 °F 41.4 °F 37% 29.82 in 10.0 mi North 16.1 mph 25.3 mph N/A   Clear
9:15 PM 63.5 °F 42.8 °F 47% 29.82 in 10.0 mi North 9.2 mph - N/A   Clear
9:35 PM 60.3 °F 42.4 °F 52% 29.83 in 10.0 mi North 6.9 mph - N/A   Clear
9:55 PM 59.0 °F 43.0 °F 55% 29.84 in 10.0 mi North 9.2 mph - N/A   Clear
10:15 PM 57.2 °F 42.3 °F 57% 29.85 in 10.0 mi North 9.2 mph - N/A   Clear
10:35 PM 57.4 °F 43.2 °F 59% 29.86 in 10.0 mi North 9.2 mph - N/A   Clear
10:55 PM 56.5 °F 43.0 °F 61% 29.87 in 10.0 mi North 5.8 mph - N/A   Clear
11:15 PM 54.1 °F 42.6 °F 65% 29.87 in 10.0 mi North 4.6 mph - N/A   Clear
11:35 PM 55.2 °F 43.3 °F 64% 29.90 in 10.0 mi Calm Calm - N/A   Clear
11:55 PM 54.5 °F 43.2 °F 66% 29.92 in 10.0 mi North 6.9 mph - N/A   Clear